Miscellaneous Local Product
Issued by NWS Hastings, NE

Home | Current Version | Previous Version | Graphics & Text | Print | Product List | Glossary On
Versions: 1 2 3 4 5 6 7 8 9 10 11 12 13 14 15 16 17 18 19 20 21 22 23 24 25 26 27 28 29 30 31 32 33 34 35 36 37 38 39 40 41 42 43 44 45 46 47 48 49 50
000
AXUS43 KGID 211502
MISGRI

GID CWA HOURLY WEATHER ROUNDUP
NATIONAL WEATHER SERVICE HASTINGS NE
1000 AM CDT SAT APR 21 2018

NOTE: "FAIR" INDICATES FEW OR NO CLOUDS BELOW 12,000 FEET WITH NO
SIGNIFICANT WEATHER AND/OR OBSTRUCTIONS TO VISIBILITY.

...SOUTH CENTRAL NEBRASKA...

CITY           SKY/WX    TMP DP  RH WIND       PRES   REMARKS
GRAND ISLAND   CLOUDY    43  38  82 E6        30.26S
KEARNEY        NOT AVBL
HASTINGS       CLOUDY    42  38  85 E7        30.25S
ORD            CLOUDY    43  38  82 NE5       30.25S
YORK             N/A     45  37  76 SE12      30.27S
AURORA         CLOUDY    43  36  78 E7        30.26R
LEXINGTON      DRIZZLE   42  39  92 NE6       30.24F
HOLDREGE       DRIZZLE   41  40  98 NE9       30.23S
HEBRON         LGT RAIN  45  41  86 E7        30.25S

...NEBRASKA PANHANDLE...

CITY           SKY/WX    TMP DP  RH WIND       PRES   REMARKS
CHADRON        CLOUDY    40  35  83 S7        30.23S
ALLIANCE       LGT SNOW  33  33 100 SE5       30.21S FOG     WCI  29
SCOTTSBLUFF    LGT SNOW  35 N/A N/A E5        30.22S WCI  31
SIDNEY         LGT SNOW  34  33  96 E7        30.20S FOG     WCI  28

...WESTERN AND NORTH CENTRAL NEBRASKA...

CITY           SKY/WX    TMP DP  RH WIND       PRES   REMARKS
VALENTINE      CLOUDY    41  38  89 SE8       30.29R
AINSWORTH      DRIZZLE   39  38  99 CALM      30.29F
ONEILL         CLOUDY    44  38  80 NE7       30.31F
BROKEN BOW     LGT RAIN  41  38  89 N13       30.24F
IMPERIAL       CLOUDY    39  38  96 E10       30.21S WCI  32
NORTH PLATTE   LGT RAIN  41  39  93 E9        30.24F
MCCOOK         CLOUDY    41  40  96 NE10      30.21F FOG

...EASTERN NEBRASKA...

CITY           SKY/WX    TMP DP  RH WIND       PRES   REMARKS
NORFOLK        CLOUDY    47  34  60 NE12      30.26F
SO SIOUX CITY  CLOUDY    44  33  65 N7        30.33S
TEKAMAH        CLOUDY    49  30  48 E6        30.31S
COLUMBUS       CLOUDY    46  32  58 E14       30.28F
ALBION         CLOUDY    46  34  63 E8        30.27F
OMAHA EPPLEY   CLOUDY    50  29  44 CALM      30.29F
OFFUTT AFB     CLOUDY    50  28  43 NE7       30.27F
MILLARD        CLOUDY    50  30  45 NE3       30.29F
LINCOLN        LGT RAIN  47  35  63 S8        30.29F
NEBRASKA CITY  CLOUDY    49  35  58 N5        30.25F
BEATRICE       LGT RAIN  44  42  91 W3        30.28S
FALLS CITY     CLOUDY    48  35  60 NE3       30.25F

...NORTHERN KANSAS...

CITY           SKY/WX    TMP DP  RH WIND       PRES   REMARKS
GOODLAND       LGT RAIN  39  37  92 NE9       30.17R WCI  33
HILL CITY      CLOUDY    43  42  97 NE12      30.19F
NORTON         DRIZZLE   41  39  93 NE9       30.20S
PHILLIPSBURG   CLOUDY    45  43  93 NE8       30.22S
SMITH CENTER   CLOUDY    41  39  93 E12       30.23R
BELOIT         CLOUDY    43  39  87 CALM      30.22S
HAYS           LGT RAIN  43  42  97 E16       30.17S FOG
RUSSELL        LGT RAIN  43  43 100 NE14      30.16S FOG
CONCORDIA      CLOUDY    43  40  89 E9        30.22F
SALINA         LGT RAIN  47  44  90 E8        30.19S
TOPEKA         CLOUDY    47  41  80 NE7       30.22F



USA.gov is the U.S. government's official web portal to all federal, state and local government web resources and services.